Home > Weather > Tallahassee > Past weeks

Flag for USA Weather for the Past 2 Weeks in Tallahassee, Florida, USA

Now
81 °F

Thunderstorms. Broken clouds.


Feels Like: 85 °F
Forecast: 70 / 83 °F
Wind: 18 mph from South

Location: Tallahassee Regional Airport

Current Time: May 3, 2016 at 6:22:08 PM

Latest Report: May 3, 2016 at 4:53 PM


Visibility: 10 mi

Pressure: 29.83 "Hg

Humidity: 72%

Dew Point: 71 °F

Location of TallahasseeLocation

Historic Weather in Tallahassee — Graph

°F

Tallahassee Temperature Yesterday

Maximum temperature yesterday: 88 °F (at 3:53 PM)
Minimum temperature yesterday: 67 °F (at 4:53 AM)
Average temperature yesterday: 78 °F

High & Low Weather Summary for the Past Weeks

 TemperatureHumidityPressure
High90 °F (Apr 29, 3:53 PM)97% (Apr 23, 4:01 AM)30.23 "Hg (Apr 23, 4:01 AM)
Low47 °F (Apr 19, 6:53 AM)16% (Apr 18, 4:53 PM)29.83 "Hg (May 3, 4:53 PM)
Average74 °F70%29.99 "Hg
* Reported Apr 18 4:53 PM — May 3 4:53 PM, Tallahassee, Weather by CustomWeather, © 2016

Note: Actual official high and low records may vary slightly from our data, if they occured in-between our weather recording intervals... More about our weather records

Advertising

Tallahassee Weather History for the Previous 24 Hours

Scroll right to see more
 ConditionsComfort  
Time TempWeatherWind HumidityBarometerVisibility
4:53 PM
Tue, May 3
81 °FThunderstorms. Broken clouds.18 mph72%29.83 "Hg10 mi
3:53 PM81 °FThunderstorms. Broken clouds.18 mph67%29.84 "Hg10 mi
2:53 PM90 °FPartly sunny.14 mph39%29.85 "Hg10 mi
1:53 PM86 °FBroken clouds.5 mph48%29.88 "Hg10 mi
12:53 PM86 °FBroken clouds.12 mph48%29.91 "Hg10 mi
11:53 AM84 °FPartly sunny.7 mph55%29.93 "Hg10 mi
10:53 AM82 °FPartly sunny.6 mph63%29.94 "Hg10 mi
9:56 AM80 °FBroken clouds.10 mph71%29.95 "Hg10 mi
8:53 AM73 °FFog.7 mph94%29.94 "Hg1 mi
7:53 AM72 °FFog.5 mph93%29.93 "Hg0 mi
6:53 AM71 °FFog.5 mph96%29.92 "Hg0 mi
5:53 AM70 °FFog.No wind93%29.90 "Hg1 mi
5:01 AM69 °FFog.No wind93%29.90 "Hg3 mi
3:53 AM71 °FClear.No wind90%29.91 "Hg10 mi
2:53 AM72 °FClear.No wind91%29.91 "Hg10 mi
1:53 AM72 °FClear.No wind87%29.92 "Hg10 mi
12:53 AM75 °FClear.3 mph82%29.94 "Hg10 mi
11:53 PM
Mon, May 2
76 °FPartly cloudy.5 mph80%29.96 "Hg10 mi
10:53 PM77 °FMostly cloudy.5 mph74%29.97 "Hg10 mi
9:53 PM77 °FPassing clouds.3 mph74%29.97 "Hg10 mi
8:53 PM77 °FScattered clouds.5 mph71%29.96 "Hg10 mi
7:53 PM81 °FPartly sunny.No wind62%29.93 "Hg10 mi
6:53 PM83 °FBroken clouds.7 mph59%29.93 "Hg10 mi
Weather by CustomWeather, © 2016

See weather overviewHow to use our weather pages